Regional Weather Roundup
Issued by NWS

Home | Current Version | Previous Version | Text Only | Print | Product List | Glossary On
Versions: 1 2 3 4 5 6 7 8 9 10 11 12 13 14 15 16 17 18 19 20 21 22 23 24 25 26 27 28 29 30 31 32 33 34 35 36 37 38 39 40 41 42 43 44 45 46 47 48 49 50
000
ASUS43 KMKX 270059
RWRWI

WISCONSIN REGIONAL WEATHER ROUNDUP
NATIONAL WEATHER SERVICE MILWAUKEE/SULLIVAN WI
700 PM CST MON JAN 26 2015

NOTE: "FAIR" INDICATES FEW OR NO CLOUDS BELOW 12,000 FEET WITH NO
SIGNIFICANT WEATHER AND/OR OBSTRUCTIONS TO VISIBILITY.

WIZ001-002-006>008-014>016-023>028-270200-
NORTHWEST WISCONSIN

CITY           SKY/WX    TMP DP  RH WIND       PRES   REMARKS
SUPERIOR ARPT  CLOUDY    28  27  96 CALM      29.86R
ASHLAND        CLOUDY    25  23  92 CALM      29.87R
HAYWARD        CLOUDY    26  23  88 CALM      29.84R
SIREN          CLOUDY    35  33  92 N5        29.85R WCI  31
CUMBERLAND     CLOUDY    28  27  93 CALM      29.82R
RICE LAKE      LGT SNOW  27  26  94 CALM      29.84R
CHETEK         CLOUDY    26  25  96 CALM      29.84R
LADYSMITH      LGT SNOW  24  23  95 CALM      29.83R
EAU CLAIRE     CLOUDY    27  24  89 CALM      29.83R
MENOMONIE      MOCLDY    30  29  96 CALM      29.84R FOG
NEW RICHMOND   CLOUDY    37  31  81 NW5       29.84R WCI  33
OSCEOLA        CLOUDY    38  31  74 NW10      29.87R WCI  32
$$

WIZ003>005-009-010-017-018-270200-
NORTH CENTRAL WISCONSIN

CITY           SKY/WX    TMP DP  RH WIND       PRES   REMARKS
MANITOWISH WTR LGT SNOW  19  17  93 CALM      29.81R
ARBOR VITAE    LGT SNOW  22  19  88 S3        29.80R
WOODRUFF       LGT SNOW  22  19  88 S3        29.80R
RHINELANDER    LGT SNOW  19  16  88 SE3       29.81S FOG
EAGLE RIVER    LGT SNOW  19  16  86 CALM      29.80R
LAND O LAKES   FLURRIES  20  17  89 SE3       29.81R
PHILLIPS       CLOUDY    20  18  93 CALM      29.80R
TOMAHAWK       CLOUDY    19  17  90 CALM      29.82S
MEDFORD        LGT SNOW  20  19  93 CALM      29.81R
MERRILL        LGT SNOW  20  19  93 CALM      29.83R
$$

WIZ029-030-035-036-043>047-270200-
CENTRAL WISCONSIN

CITY           SKY/WX    TMP DP  RH WIND       PRES   REMARKS
WAUSAU         LGT SNOW  21  19  92 E5        29.83R FOG     WCI  15
MOSINEE        NOT AVBL
MARSHFIELD     CLOUDY    23  21  92 SE3       29.83R FOG
STEVENS POINT  MIX PCPN  20  19  95 SE3       29.85R
WAUPACA        FLURRIES  26  23  89 CALM      29.87R
WAUTOMA        LGT SNOW  25  23  93 CALM      29.88R FOG
WISC RAPIDS    LGT SNOW  23  20  88 SE5       29.86S FOG     WCI  17
CAMP DOUGLAS   NOT AVBL
$$

WIZ011>013-019>022-031-037>040-048>050-270200-
NORTHEAST WISCONSIN

CITY           SKY/WX    TMP DP  RH WIND       PRES   REMARKS
ANTIGO         LGT SNOW  19  19  96 SE7       29.83R WCI  10
SHAWANO        LGT SNOW  26  22  86 CALM      29.88S
OCONTO         CLOUDY    25  22  87 CALM      29.90R
STURGEON BAY   CLOUDY    25  16  68 SE9       29.93R WCI  15
GREEN BAY      LGT SNOW  25  20  81 S7        29.89R WCI  17
MANITOWOC      NOT AVBL
APPLETON       LGT SNOW  25  19  80 SE7       29.87S WCI  17
CLINTONVILLE   LGT SNOW  25  21  86 CALM      29.87S
OSHKOSH        LGT SNOW  24  20  84 S5        29.88R FOG     WCI  18
$$

WIZ032>034-041-042-053>061-270200-
SOUTHWEST WISCONSIN

CITY           SKY/WX    TMP DP  RH WIND       PRES   REMARKS
LA CROSSE      CLOUDY    30  26  85 S3        29.85R
SPARTA         CLOUDY    27  26  99 CALM      29.85R
VIROQUA        CLOUDY    26  26 100 CALM      29.82R
BOSCOBEL       CLOUDY    27  24  89 NE3       29.87R FOG
PRAIRIE DU CHI CLOUDY    29  25  86 CALM      29.86R FOG
PLATTEVILLE    CLOUDY    26  25  96 E3        29.85R
$$

WIZ056-057-062-063-064-067-068-270200-
SOUTH CENTRAL WISCONSIN

CITY           SKY/WX    TMP DP  RH WIND       PRES   REMARKS
REEDSBURG      MIX PCPN  24  23  96 CALM      29.85R
BARABOO/DELLS  MIX PCPN  23  21  93 S6        29.85R WCI  15
LONE ROCK      NOT AVBL
MINERAL POINT  LGT SNOW  27  25  93 SE3       29.84R
MADISON        LGT SNOW  24  22  91 S7        29.86R FOG     WCI  16
MIDDLETON      CLOUDY    26  24  93 S5        29.86R WCI  20
WATERTOWN      MIX PCPN  24  24  99 S5        29.86S WCI  18
MONROE         CLOUDY    23  23 100 S7        29.84R FOG     WCI  15
JANESVILLE     CLOUDY    27  25  93 S6        29.88R WCI  20
$$

WIZ051-052-058>065-066-070>072-270200-
SOUTHEAST WISCONSIN

CITY           SKY/WX    TMP DP  RH WIND       PRES   REMARKS
MILWAUKEE      LGT SNOW  26  20  77 SE7       29.90S WCI  18
WAUKESHA       LGT SNOW  23  21  93 SE7       29.88S WCI  15
MILWAUKEE/TIMM NOT AVBL
RACINE         LGT SNOW  26  22  84 S5        29.91S FOG     WCI  20
BURLINGTON     LGT SNOW  24  23  96 SE6       29.87S WCI  16
KENOSHA        FLURRIES  26  22  84 S6        29.89S WCI  19
FOND DU LAC    CLOUDY    24  21  88 S3        29.88R
SHEBOYGAN      CLOUDY    26  20  77 S6        29.89R WCI  19
WEST BEND      LGT SNOW  25  21  86 SE5       29.88R WCI  19
JUNEAU         MIX PCPN  24  23  95 SE7       29.87S WCI  16
$$

LSZ147-162-270200-
LAKE SUPERIOR

STATION/POSITION TIME  TEMP    WIND        PRES    WAVE
                       AIR SEA DIR/SP/G            HT/PER
                 (UTC) (F)     (DEG/KT/KT) (MB)    (FT/S)
DEVILS ISLAND    0000   26     350/  4/  4 1011.8R
PORT WING        0040   27      70/  2/  4 1011.9R
SAXON HARBOR     0000   25        CALM     1010.8R
$$

LMZ867-665-643>646-270200-
LAKE MICHIGAN

STATION/POSITION TIME  TEMP    WIND        PRES    WAVE
                       AIR SEA DIR/SP/G            HT/PER
                 (UTC) (F)     (DEG/KT/KT) (MB)    (FT/S)
NORTHPORT PIER   0020   25     130/ 12/ 18 1013.9R
SISTER BAY       0013   25     140/  9/ 13   N/A
KEWAUNEE LAKESHO 0000   28     170/ 16/ 19 1011.4R
SHEBOYGAN LAKESH 0000   28     140/ 17/ 18 1013.3R
PORT WASHINGTON  0040   28     170/  9/ 13 1013.5R
MILWAUKEE LAKESH 0000   26     190/  7/  8   N/A
KENOSHA   LAKESH 0000   26     200/  6/  9 1012.5R
$$

TC  - TEMPERATURE IN CELSIUS
VSB - VISIBILITY IN STATUTE MILES
WCI - WIND CHILL INDEX
HX  - HEAT INDEX




USA.gov is the U.S. government's official web portal to all federal, state and local government web resources and services.